• en France
  • Liste des pays
  • À 7 jours
  • Température de l'eau
  • Carte satellitaire
  • Carte météo
  • Widgets météo
  • user-avatar
    Se connecter

    Météo par heure à Salgótarján

    Ce jour, 16 Janvier, Mardi

    Heure Température Précipitation Vent Pression Humidité
    00:00 -6°C° 0 mm 2 m/s 733 mmHg 75%
    01:00 -4°C° 0 mm 1 m/s 733 mmHg 78%
    02:00 -6°C° 0 mm 2 m/s 732 mmHg 79%
    03:00 -6°C° 0 mm 2 m/s 731 mmHg 80%
    04:00 -7°C° 0 mm 3 m/s 730 mmHg 81%
    05:00 -7°C° 0,1 mm 3 m/s 729 mmHg 82%
    06:00 -7°C° 0,1 mm 3 m/s 728 mmHg 83%
    07:00 -6°C° 0 mm 2 m/s 728 mmHg 82%
    08:00 -7°C° 0,1 mm 3 m/s 727 mmHg 82%
    09:00 -7°C° 0,1 mm 3 m/s 727 mmHg 82%
    10:00 -7°C° 0,1 mm 3 m/s 726 mmHg 83%
    11:00 -6°C° 0,1 mm 3 m/s 725 mmHg 83%
    12:00 -6°C° 0,1 mm 3 m/s 724 mmHg 84%
    13:00 -5°C° 0 mm 2 m/s 723 mmHg 83%
    14:00 -5°C° 0,4 mm 2 m/s 722 mmHg 86%
    15:00 -5°C° 0,4 mm 2 m/s 722 mmHg 89%
    16:00 -5°C° 0,4 mm 2 m/s 721 mmHg 92%
    17:00 -4°C° 0,1 mm 2 m/s 720 mmHg 93%
    18:00 -2°C° 0,1 mm 1 m/s 720 mmHg 94%
    19:00 -2°C° 0,1 mm 1 m/s 720 mmHg 94%
    20:00 -1°C° 0,2 mm 1 m/s 719 mmHg 95%
    21:00 -1°C° 0,2 mm 1 m/s 719 mmHg 95%
    22:00 -1°C° 0,2 mm 1 m/s 718 mmHg 96%
    23:00 -1°C° 0,1 mm 1 m/s 718 mmHg 96%

    Demain, 17 Janvier, Mercredi

    Heure Température Précipitation Vent Pression Humidité
    00:00 0°C° 0,1 mm 1 m/s 718 mmHg 96%
    01:00 0°C° 0,1 mm 1 m/s 718 mmHg 96%
    02:00 0°C° 0 mm 1 m/s 717 mmHg 96%
    03:00 0°C° 0 mm 1 m/s 717 mmHg 96%
    04:00 0°C° 0 mm 1 m/s 717 mmHg 95%
    05:00 0°C° 0,1 mm 1 m/s 717 mmHg 95%
    06:00 -1°C° 0,1 mm 0 m/s 716 mmHg 95%
    07:00 -1°C° 0,1 mm 0 m/s 716 mmHg 94%
    08:00 -1°C° 0,1 mm 0 m/s 716 mmHg 93%
    09:00 0°C° 0,1 mm 0 m/s 716 mmHg 91%
    10:00 +1°C° 0,1 mm 0 m/s 715 mmHg 90%
    11:00 +2°C° 0,1 mm 1 m/s 715 mmHg 89%
    12:00 +2°C° 0,1 mm 1 m/s 715 mmHg 89%
    13:00 +3°C° 0,1 mm 1 m/s 715 mmHg 88%
    14:00 +1°C° 0 mm 2 m/s 715 mmHg 87%
    15:00 0°C° 0 mm 3 m/s 716 mmHg 85%
    16:00 -1°C° 0 mm 4 m/s 716 mmHg 84%
    17:00 -1°C° 0 mm 4 m/s 716 mmHg 81%
    18:00 -2°C° 0 mm 5 m/s 717 mmHg 79%
    19:00 -2°C° 0 mm 5 m/s 717 mmHg 76%
    20:00 -2°C° 0 mm 5 m/s 718 mmHg 75%
    21:00 -4°C° 0 mm 5 m/s 719 mmHg 74%
    22:00 -4°C° 0 mm 5 m/s 720 mmHg 73%
    23:00 -4°C° 0 mm 5 m/s 720 mmHg 74%

    Après-demain, 18 Janvier, Jeudi

    Heure Température Précipitation Vent Pression Humidité
    00:00 -5°C° 0 mm 5 m/s 721 mmHg 75%
    01:00 -5°C° 0 mm 5 m/s 721 mmHg 76%
    02:00 -5°C° 0 mm 5 m/s 722 mmHg 78%
    03:00 -4°C° 0 mm 4 m/s 722 mmHg 80%
    04:00 -5°C° 0 mm 4 m/s 723 mmHg 82%
    05:00 -4°C° 0 mm 4 m/s 723 mmHg 81%
    06:00 -5°C° 0 mm 5 m/s 724 mmHg 79%
    07:00 -4°C° 0 mm 5 m/s 725 mmHg 78%
    08:00 -4°C° 0 mm 5 m/s 725 mmHg 75%
    09:00 -2°C° 0 mm 5 m/s 725 mmHg 73%
    10:00 -2°C° 0 mm 6 m/s 726 mmHg 70%
    11:00 -1°C° 0 mm 5 m/s 726 mmHg 68%
    12:00 0°C° 0 mm 4 m/s 725 mmHg 67%
    13:00 0°C° 0 mm 4 m/s 725 mmHg 65%
    14:00 0°C° 0,1 mm 4 m/s 725 mmHg 70%
    15:00 0°C° 0,1 mm 3 m/s 724 mmHg 74%
    16:00 -1°C° 0,1 mm 3 m/s 724 mmHg 79%
    17:00 -1°C° 0,1 mm 3 m/s 723 mmHg 79%
    18:00 -1°C° 0,1 mm 3 m/s 722 mmHg 80%
    19:00 -1°C° 0,1 mm 3 m/s 721 mmHg 81%
    20:00 -1°C° 0,4 mm 3 m/s 721 mmHg 81%
    21:00 0°C° 0,4 mm 3 m/s 721 mmHg 80%
    22:00 0°C° 0,4 mm 3 m/s 720 mmHg 80%
    23:00 -1°C° 0,2 mm 4 m/s 720 mmHg 80%

    19 Janvier, Vendredi

    Heure Température Précipitation Vent Pression Humidité
    00:00 0°C° 0,2 mm 4 m/s 720 mmHg 81%
    01:00 0°C° 0,2 mm 5 m/s 720 mmHg 81%
    02:00 0°C° 0,1 mm 5 m/s 719 mmHg 83%
    03:00 0°C° 0,1 mm 4 m/s 719 mmHg 85%
    04:00 +1°C° 0,1 mm 4 m/s 719 mmHg 86%
    05:00 0°C° 0,1 mm 4 m/s 720 mmHg 87%
    06:00 0°C° 0,1 mm 4 m/s 720 mmHg 87%
    07:00 0°C° 0,1 mm 4 m/s 720 mmHg 87%
    08:00 0°C° 0,1 mm 4 m/s 720 mmHg 86%
    09:00 +1°C° 0,1 mm 3 m/s 721 mmHg 84%
    10:00 +2°C° 0,1 mm 3 m/s 721 mmHg 83%
    11:00 +1°C° 0 mm 4 m/s 721 mmHg 82%
    12:00 +1°C° 0 mm 4 m/s 722 mmHg 81%
    13:00 +3°C° 0 mm 4 m/s 722 mmHg 81%
    14:00 +1°C° 0 mm 4 m/s 722 mmHg 81%
    15:00 +2°C° 0 mm 3 m/s 722 mmHg 82%
    16:00 +1°C° 0 mm 3 m/s 723 mmHg 83%
    17:00 +1°C° 0 mm 3 m/s 723 mmHg 83%
    18:00 +1°C° 0 mm 2 m/s 723 mmHg 83%
    19:00 +1°C° 0 mm 2 m/s 724 mmHg 83%
    20:00 +1°C° 0 mm 2 m/s 724 mmHg 84%
    21:00 -1°C° 0 mm 2 m/s 724 mmHg 84%
    22:00 -1°C° 0 mm 2 m/s 725 mmHg 85%
    23:00 -1°C° 0 mm 2 m/s 725 mmHg 86%

    20 Janvier, Samedi

    Heure Température Précipitation Vent Pression Humidité
    00:00 -1°C° 0 mm 2 m/s 725 mmHg 87%
    01:00 0°C° 0 mm 1 m/s 725 mmHg 88%
    02:00 0°C° 0 mm 1 m/s 724 mmHg 89%
    03:00 0°C° 0 mm 1 m/s 724 mmHg 89%
    04:00 0°C° 0 mm 1 m/s 724 mmHg 89%
    05:00 0°C° 0 mm 1 m/s 724 mmHg 89%
    06:00 0°C° 0 mm 1 m/s 724 mmHg 89%
    07:00 0°C° 0 mm 1 m/s 723 mmHg 89%
    08:00 0°C° 0 mm 1 m/s 723 mmHg 86%
    09:00 +1°C° 0 mm 1 m/s 723 mmHg 84%
    10:00 +2°C° 0 mm 1 m/s 723 mmHg 81%
    11:00 +2°C° 0 mm 1 m/s 723 mmHg 80%
    12:00 +3°C° 0 mm 1 m/s 723 mmHg 79%
    13:00 +2°C° 0 mm 2 m/s 722 mmHg 77%
    14:00 +3°C° 0 mm 1 m/s 722 mmHg 79%
    15:00 +2°C° 0 mm 1 m/s 722 mmHg 82%
    16:00 +2°C° 0 mm 1 m/s 722 mmHg 84%
    17:00 -1°C° 0 mm 2 m/s 722 mmHg 84%
    18:00 -1°C° 0 mm 2 m/s 722 mmHg 85%
    19:00 -2°C° 0 mm 2 m/s 722 mmHg 85%
    20:00 -2°C° 0 mm 2 m/s 722 mmHg 84%
    21:00 -2°C° 0 mm 2 m/s 722 mmHg 83%
    22:00 -2°C° 0 mm 2 m/s 722 mmHg 83%
    23:00 -2°C° 0 mm 2 m/s 722 mmHg 82%

    21 Janvier, Dimanche

    Heure Température Précipitation Vent Pression Humidité
    00:00 -3°C° 0 mm 2 m/s 722 mmHg 81%
    01:00 -3°C° 0 mm 2 m/s 722 mmHg 80%
    02:00 -3°C° 0 mm 2 m/s 723 mmHg 79%
    03:00 -3°C° 0 mm 2 m/s 723 mmHg 78%
    04:00 -3°C° 0 mm 2 m/s 723 mmHg 78%
    05:00 -5°C° 0 mm 3 m/s 723 mmHg 78%
    06:00 -5°C° 0 mm 3 m/s 723 mmHg 78%
    07:00 -5°C° 0 mm 3 m/s 724 mmHg 77%
    08:00 -4°C° 0 mm 3 m/s 724 mmHg 73%
    09:00 -4°C° 0 mm 3 m/s 725 mmHg 69%
    10:00 -2°C° 0 mm 3 m/s 725 mmHg 65%
    11:00 -1°C° 0 mm 3 m/s 725 mmHg 63%
    12:00 0°C° 0 mm 3 m/s 725 mmHg 61%
    13:00 -1°C° 0 mm 4 m/s 726 mmHg 58%
    14:00 0°C° 0 mm 3 m/s 726 mmHg 62%
    15:00 -1°C° 0 mm 3 m/s 726 mmHg 66%
    16:00 -2°C° 0 mm 2 m/s 727 mmHg 69%
    17:00 -2°C° 0 mm 2 m/s 727 mmHg 72%
    18:00 -3°C° 0 mm 2 m/s 727 mmHg 75%
    19:00 -4°C° 0 mm 2 m/s 728 mmHg 77%
    20:00 -4°C° 0 mm 2 m/s 728 mmHg 78%
    21:00 -4°C° 0 mm 2 m/s 729 mmHg 78%
    22:00 -4°C° 0 mm 2 m/s 729 mmHg 79%
    23:00 -4°C° 0 mm 2 m/s 729 mmHg 79%
    Voir plus